Flag for France Weather past 2 weeks in Chalon-sur-Saône, France

46 °F


Feels Like: 43 °F
Forecast: 44 / 64 °F
Wind: 7 mph from North

Location: Dole Tavaux

Current Time: Oct 9, 2015 at 7:27:28 AM

Latest Report: Oct 9, 2015 at 7:00 AM

Visibility: 10 mi

Pressure: 30.09 "Hg

Humidity: 93%

Dew point: 45 °F

Location of Chalon-sur-SaôneLocation

Historic Weather in Chalon-sur-Saône — Graph


Chalon-sur-Saône temperature yesterday

Maximum temperature yesterday: 61 °F (at 11:30 AM)
Minimum temperature yesterday: 50 °F (at 7:00 AM)
Average temperature yesterday: 55 °F

Past Weeks' High & Low Weather Summary

High70 °F (Oct 5, 1:00 PM)100% (Sep 24, 6:30 AM)30.36 "Hg (Sep 24, 6:30 AM)
Low43 °F (Sep 30, 7:00 AM)40% (Sep 28, 3:00 PM)29.68 "Hg (Oct 6, 7:30 AM)
Average57 °F74%30.11 "Hg
* Reported Sep 24 6:30 AM — Oct 9 6:30 AM, Chalon-sur-Saône, Weather by CustomWeather, © 2015

Note: Actual official high and low records may vary slightly from our data, if they occured in-between our weather recording intervals... More about our weather records


Chalon-sur-Saône weather history for previous 24 hours

Time TempWeatherWind HumidityBarometerVisibility
6:30 AM
Fri, Oct 9
46 °FClear.7 mph93%30.09 "Hg10 mi
6:00 AM46 °FClear.7 mph93%30.09 "Hg10 mi
5:30 AM46 °FClear.7 mph93%30.09 "Hg10 mi
5:00 AM46 °FClear.6 mph93%30.12 "Hg10 mi
4:30 AM46 °FClear.3 mph100%30.12 "Hg10 mi
4:00 AM48 °FClear.7 mph94%30.12 "Hg10 mi
3:30 AM48 °FClear.8 mph94%30.12 "Hg10 mi
3:00 AM48 °FClear.7 mph94%30.12 "Hg10 mi
2:30 AM48 °FPassing clouds.6 mph94%30.12 "HgN/A
2:00 AM50 °FPassing clouds.5 mph88%30.12 "HgN/A
1:30 AM50 °FPassing clouds.7 mph88%30.12 "HgN/A
1:00 AM50 °FPassing clouds.7 mph88%30.12 "HgN/A
12:30 AM48 °FClear.5 mph94%30.15 "Hg10 mi
12:00 AM48 °FPassing clouds.3 mph94%30.15 "HgN/A
11:30 PM
Thu, Oct 8
50 °FPassing clouds.3 mph88%30.15 "HgN/A
11:00 PM50 °FClear.7 mph88%30.15 "Hg10 mi
10:30 PM52 °FClear.5 mph82%30.15 "Hg10 mi
10:00 PM52 °FClear.6 mph82%30.15 "Hg10 mi
9:30 PM52 °FPassing clouds.6 mph82%30.15 "HgN/A
9:00 PM52 °FPassing clouds.5 mph82%30.15 "HgN/A
8:30 PM54 °FSunny.3 mph77%30.15 "Hg10 mi
8:00 PM55 °FPassing clouds.3 mph72%30.15 "HgN/A
7:30 PM55 °FSunny.5 mph72%30.12 "Hg10 mi
7:00 PM57 °FPassing clouds.5 mph72%30.12 "HgN/A
6:30 PM59 °FSunny.9 mph63%30.12 "Hg10 mi
6:00 PM61 °FSunny.7 mph59%30.12 "Hg10 mi
5:30 PM61 °FPassing clouds.8 mph59%30.12 "HgN/A
5:00 PM61 °FPassing clouds.8 mph63%30.12 "HgN/A
4:30 PM61 °FPassing clouds.8 mph59%30.12 "HgN/A
4:00 PM61 °FOvercast.8 mph63%30.12 "HgN/A
3:30 PM61 °FSunny.8 mph59%30.12 "Hg10 mi
3:00 PM61 °FPassing clouds.7 mph63%30.12 "HgN/A
2:30 PM59 °FPassing clouds.8 mph68%30.12 "HgN/A
2:00 PM59 °FPassing clouds.8 mph72%30.12 "HgN/A
1:30 PM59 °FPassing clouds.7 mph68%30.15 "HgN/A
1:00 PM59 °FMore clouds than sun.8 mph68%30.15 "HgN/A
12:30 PM61 °FPartly sunny.5 mph55%30.15 "HgN/A
12:00 PM61 °FBroken clouds.5 mph68%30.15 "HgN/A
11:30 AM61 °FScattered clouds.3 mph68%30.15 "HgN/A
11:00 AM59 °FPassing clouds.6 mph72%30.15 "HgN/A
10:30 AM59 °FPassing clouds.6 mph72%30.12 "HgN/A
10:00 AM57 °FPassing clouds.3 mph77%30.12 "HgN/A
9:30 AM54 °FClear.2 mph94%30.12 "Hg10 mi
9:00 AM50 °FClear.1 mph100%30.12 "Hg5 mi
8:30 AM50 °FClear.2 mph100%30.12 "Hg10 mi
8:00 AM50 °FClear.2 mph94%30.09 "Hg10 mi
7:30 AM50 °FClear.1 mph100%30.09 "Hg10 mi
7:00 AM50 °FClear.3 mph100%30.09 "Hg10 mi
Weather by CustomWeather, © 2015

See weather overviewHow to use our weather pages